MFX464 UNOO-UZTT

Flight info

Callsign MFX464
Flight time 2h 22m
Altitude 34000
Route N0450F340 ALODA N990 DAKIN M75 AMIGU P178 TIMKA M168 GENDI Z632 NIMAG
Aircraft A320/M-VGDW/C

Departure

Time 2026-04-28 16:39
Airport Omsk Central Airport (UNOO)

Arrival

Time 2026-04-28 19:02
Airport Tashkent International Airport (UZTT)
Time Latitude Longitude Altitude Speed Heading
2026-04-28 16:26 54.96266 73.31907 301 ft 0 kts 137°
2026-04-28 16:35 54.96261 73.31915 302 ft 6 kts 137°
2026-04-28 16:35 54.96245 73.32037 298 ft 12 kts 66°
2026-04-28 16:35 54.96308 73.32137 300 ft 13 kts 36°
2026-04-28 16:36 54.96390 73.32233 301 ft 16 kts 18°
2026-04-28 16:36 54.96473 73.32309 301 ft 14 kts 65°
2026-04-28 16:36 54.96504 73.32531 298 ft 23 kts 77°
2026-04-28 16:36 54.96540 73.32807 299 ft 24 kts 77°
2026-04-28 16:37 54.96577 73.33023 298 ft 14 kts 50°
2026-04-28 16:37 54.96661 73.33031 301 ft 12 kts 346°
2026-04-28 16:37 54.96739 73.32999 299 ft 13 kts 347°
2026-04-28 16:38 54.96957 73.32866 300 ft 13 kts 276°
2026-04-28 16:38 54.96949 73.32787 305 ft 2 kts 257°
2026-04-28 16:38 54.96943 73.32745 305 ft 13 kts 257°
2026-04-28 16:38 54.96864 73.32162 309 ft 86 kts 257°
2026-04-28 16:39 54.96679 73.30775 314 ft 145 kts 256°
2026-04-28 16:39 54.96436 73.28975 822 ft 150 kts 253°
2026-04-28 16:39 54.96201 73.27224 1546 ft 149 kts 250°
2026-04-28 16:39 54.95950 73.25373 1961 ft 167 kts 250°
2026-04-28 16:40 54.95660 73.23273 2240 ft 190 kts 251°
2026-04-28 16:40 54.95333 73.20891 2517 ft 216 kts 252°
2026-04-28 16:40 54.94967 73.18209 2964 ft 240 kts 252°
2026-04-28 16:40 54.94567 73.15282 3459 ft 264 kts 253°
2026-04-28 16:41 54.94125 73.12031 3884 ft 288 kts 253°
2026-04-28 16:41 54.93652 73.08522 4451 ft 304 kts 254°
2026-04-28 16:41 54.93149 73.04916 5330 ft 309 kts 251°
2026-04-28 16:41 54.92201 73.01575 6192 ft 311 kts 232°
2026-04-28 16:42 54.90648 72.98968 7034 ft 314 kts 213°
2026-04-28 16:42 54.88645 72.97439 7850 ft 319 kts 194°
2026-04-28 16:42 54.86440 72.96818 8675 ft 323 kts 190°
2026-04-28 16:42 54.84236 72.96273 9490 ft 327 kts 190°
2026-04-28 16:43 54.81968 72.95723 10296 ft 331 kts 190°
2026-04-28 16:43 54.79670 72.95171 11079 ft 334 kts 190°
2026-04-28 16:43 54.77355 72.94612 11821 ft 338 kts 190°
2026-04-28 16:43 54.75008 72.94046 12537 ft 343 kts 190°
2026-04-28 16:44 54.72626 72.93468 13250 ft 348 kts 190°
2026-04-28 16:44 54.70212 72.92882 13954 ft 353 kts 190°
2026-04-28 16:44 54.67769 72.92289 14584 ft 357 kts 190°
2026-04-28 16:44 54.65325 72.91695 15201 ft 361 kts 190°
2026-04-28 16:45 54.62841 72.91004 15816 ft 364 kts 195°
2026-04-28 16:45 54.60438 72.89596 16433 ft 365 kts 207°
2026-04-28 16:45 54.58235 72.87416 17044 ft 367 kts 215°
2026-04-28 16:45 54.56091 72.84995 17656 ft 370 kts 215°
2026-04-28 16:46 54.53921 72.82554 18239 ft 375 kts 215°
2026-04-28 16:46 54.51723 72.80092 18820 ft 379 kts 214°
2026-04-28 16:46 54.49502 72.77615 19350 ft 382 kts 214°
2026-04-28 16:46 54.47258 72.75122 19887 ft 386 kts 214°
2026-04-28 16:47 54.45030 72.72648 20419 ft 389 kts 214°
2026-04-28 16:47 54.42740 72.70110 20959 ft 392 kts 214°
2026-04-28 16:47 54.40435 72.67559 21489 ft 396 kts 214°
2026-04-28 16:47 54.38109 72.64988 22001 ft 399 kts 214°
2026-04-28 16:48 54.35767 72.62402 22507 ft 402 kts 214°
2026-04-28 16:48 54.33409 72.59798 22987 ft 405 kts 214°
2026-04-28 16:48 54.31029 72.57169 23474 ft 409 kts 214°
2026-04-28 16:48 54.28627 72.54523 23931 ft 412 kts 214°
2026-04-28 16:49 54.26205 72.51863 24310 ft 415 kts 214°
2026-04-28 16:49 54.23768 72.49189 24690 ft 418 kts 214°
2026-04-28 16:49 54.21347 72.46535 25039 ft 420 kts 214°
2026-04-28 16:49 54.18878 72.43835 25402 ft 423 kts 214°
2026-04-28 16:50 54.16284 72.41418 25768 ft 428 kts 206°
2026-04-28 16:50 54.13463 72.39747 26119 ft 433 kts 196°
2026-04-28 16:50 54.10497 72.38724 26463 ft 436 kts 193°
2026-04-28 16:50 54.07514 72.37749 26809 ft 438 kts 193°
2026-04-28 16:51 54.04511 72.36765 27146 ft 441 kts 193°
2026-04-28 16:51 54.01497 72.35775 27486 ft 443 kts 193°
2026-04-28 16:51 53.98503 72.34790 27833 ft 444 kts 193°
2026-04-28 16:51 53.95462 72.33786 28154 ft 446 kts 193°
2026-04-28 16:52 53.92403 72.32774 28436 ft 449 kts 193°
2026-04-28 16:52 53.89328 72.31762 28722 ft 452 kts 193°
2026-04-28 16:52 53.86233 72.30756 29009 ft 454 kts 193°
2026-04-28 16:52 53.83130 72.29750 29294 ft 456 kts 193°
2026-04-28 16:53 53.80008 72.28738 29566 ft 458 kts 193°
2026-04-28 16:53 53.76873 72.27722 29827 ft 460 kts 193°
2026-04-28 16:53 53.73729 72.26704 30085 ft 461 kts 193°
2026-04-28 16:53 53.70563 72.25679 30322 ft 463 kts 193°
2026-04-28 16:54 53.67440 72.24671 30574 ft 463 kts 193°
2026-04-28 16:54 53.64271 72.23648 30848 ft 463 kts 193°
2026-04-28 16:54 53.61107 72.22629 31121 ft 463 kts 193°
2026-04-28 16:54 53.59010 72.21968 31298 ft 463 kts 193°
2026-04-28 16:55 53.54773 72.20651 31674 ft 463 kts 193°
2026-04-28 16:55 53.51604 72.19679 31959 ft 463 kts 193°
2026-04-28 16:55 53.49508 72.19042 32146 ft 462 kts 193°
2026-04-28 16:55 53.46343 72.18080 32422 ft 462 kts 193°
2026-04-28 16:56 53.43190 72.17117 32741 ft 460 kts 193°
2026-04-28 16:56 53.39021 72.15837 33110 ft 460 kts 193°
2026-04-28 16:56 53.35877 72.14866 33376 ft 460 kts 193°
2026-04-28 16:56 53.32720 72.13892 33655 ft 460 kts 193°
2026-04-28 16:57 53.29571 72.12927 33940 ft 460 kts 193°
2026-04-28 16:57 53.27491 72.12292 34128 ft 460 kts 193°
2026-04-28 16:57 53.24341 72.11331 34287 ft 460 kts 193°
2026-04-28 16:58 53.18048 72.09417 34319 ft 459 kts 193°
2026-04-28 16:58 53.10740 72.07191 34318 ft 460 kts 193°
2026-04-28 16:59 53.05456 72.05589 34322 ft 461 kts 193°
2026-04-28 16:59 52.99188 72.03697 34320 ft 461 kts 193°
2026-04-28 17:00 52.92877 72.01811 34315 ft 461 kts 193°
2026-04-28 17:00 52.85550 71.99602 34312 ft 461 kts 193°
2026-04-28 17:01 52.80265 71.98022 34312 ft 461 kts 193°
2026-04-28 17:01 52.73994 71.96177 34311 ft 461 kts 193°
2026-04-28 17:02 52.67683 71.94308 34309 ft 461 kts 193°
2026-04-28 17:02 52.61379 71.92404 34310 ft 460 kts 194°
2026-04-28 17:03 52.51964 71.89267 34307 ft 460 kts 195°
2026-04-28 17:03 52.45732 71.87185 34307 ft 460 kts 194°
2026-04-28 17:04 52.36312 71.84134 34297 ft 460 kts 194°
2026-04-28 17:05 52.26925 71.81096 34292 ft 461 kts 194°
2026-04-28 17:06 52.17493 71.78044 34294 ft 461 kts 194°
2026-04-28 17:06 52.08061 71.75020 34297 ft 461 kts 194°
2026-04-28 17:07 52.01754 71.73080 34300 ft 459 kts 193°
2026-04-28 17:07 51.98653 71.72165 34315 ft 447 kts 193°
2026-04-28 17:07 51.95603 71.71277 34309 ft 442 kts 193°
2026-04-28 17:08 51.89609 71.69512 34310 ft 440 kts 193°
2026-04-28 17:08 51.83593 71.67720 34310 ft 440 kts 193°
2026-04-28 17:09 51.77571 71.65920 34310 ft 440 kts 193°
2026-04-28 17:09 51.71549 71.64129 34307 ft 440 kts 193°
2026-04-28 17:10 51.65566 71.62355 34307 ft 440 kts 193°
2026-04-28 17:10 51.59549 71.60576 34305 ft 440 kts 193°
2026-04-28 17:11 51.53526 71.58811 34290 ft 440 kts 193°
2026-04-28 17:11 51.47511 71.57062 34290 ft 439 kts 193°
2026-04-28 17:12 51.41541 71.55318 34294 ft 439 kts 193°
2026-04-28 17:12 51.35527 71.53561 34295 ft 439 kts 193°
2026-04-28 17:13 51.29516 71.51811 34278 ft 439 kts 193°
2026-04-28 17:13 51.23508 71.50068 34266 ft 439 kts 193°
2026-04-28 17:14 51.17501 71.48328 34264 ft 439 kts 193°
2026-04-28 17:14 51.11536 71.46606 34261 ft 438 kts 193°
2026-04-28 17:15 51.05536 71.44872 34260 ft 438 kts 193°
2026-04-28 17:15 50.99754 71.42097 34257 ft 431 kts 210°
2026-04-28 17:16 50.94812 71.36878 34257 ft 426 kts 221°
2026-04-28 17:16 50.90134 71.31207 34249 ft 426 kts 220°
2026-04-28 17:17 50.85405 71.25524 34255 ft 427 kts 220°
2026-04-28 17:17 50.80666 71.19858 34263 ft 427 kts 220°
2026-04-28 17:18 50.75927 71.14193 34260 ft 427 kts 220°
2026-04-28 17:18 50.71231 71.08547 34253 ft 427 kts 221°
2026-04-28 17:19 50.66518 71.02841 34262 ft 427 kts 221°
2026-04-28 17:19 50.61804 70.97161 34256 ft 426 kts 220°
2026-04-28 17:20 50.57882 70.92462 34262 ft 426 kts 220°
2026-04-28 17:20 50.52400 70.85918 34265 ft 426 kts 220°
2026-04-28 17:21 50.47679 70.80292 34264 ft 426 kts 220°
2026-04-28 17:22 50.40598 70.71882 34266 ft 425 kts 220°
2026-04-28 17:22 50.35872 70.66302 34261 ft 425 kts 220°
2026-04-28 17:23 50.28839 70.57979 34258 ft 424 kts 220°
2026-04-28 17:23 50.24134 70.52413 34248 ft 424 kts 220°
2026-04-28 17:24 50.19418 70.46870 34247 ft 424 kts 220°
2026-04-28 17:24 50.14724 70.41381 34248 ft 425 kts 220°
2026-04-28 17:25 50.07648 70.33112 34254 ft 423 kts 220°
2026-04-28 17:26 50.02934 70.27619 34258 ft 423 kts 220°
2026-04-28 17:26 49.98232 70.22146 34257 ft 422 kts 220°
2026-04-28 17:27 49.93562 70.16736 34254 ft 422 kts 219°
2026-04-28 17:27 49.88845 70.11305 34250 ft 422 kts 219°
2026-04-28 17:28 49.84144 70.05889 34247 ft 421 kts 219°
2026-04-28 17:28 49.77093 69.97788 34246 ft 420 kts 219°
2026-04-28 17:29 49.72429 69.92442 34240 ft 420 kts 219°
2026-04-28 17:30 49.65387 69.84403 34242 ft 420 kts 219°
2026-04-28 17:30 49.58332 69.76394 34243 ft 419 kts 218°
2026-04-28 17:31 49.51316 69.68440 34234 ft 419 kts 219°
2026-04-28 17:32 49.44276 69.60493 34237 ft 419 kts 218°
2026-04-28 17:32 49.39573 69.55207 34232 ft 418 kts 218°
2026-04-28 17:33 49.34904 69.49971 34229 ft 418 kts 218°
2026-04-28 17:33 49.31001 69.45605 34223 ft 418 kts 217°
2026-04-28 17:34 49.27593 69.42723 34218 ft 421 kts 204°
2026-04-28 17:34 49.24794 69.41383 34210 ft 424 kts 194°
2026-04-28 17:34 49.18968 69.39911 34205 ft 425 kts 192°
2026-04-28 17:35 49.13173 69.38472 34199 ft 425 kts 192°
2026-04-28 17:35 49.07336 69.37009 34198 ft 425 kts 192°
2026-04-28 17:36 49.01500 69.35527 34203 ft 425 kts 192°
2026-04-28 17:36 48.95664 69.34084 34214 ft 424 kts 192°
2026-04-28 17:37 48.89896 69.32674 34217 ft 422 kts 192°
2026-04-28 17:37 48.84102 69.31254 34217 ft 421 kts 192°
2026-04-28 17:38 48.78322 69.29828 34211 ft 421 kts 192°
2026-04-28 17:38 48.72545 69.28403 34205 ft 421 kts 192°
2026-04-28 17:39 48.66766 69.26996 34201 ft 420 kts 192°
2026-04-28 17:40 48.58147 69.24898 34199 ft 420 kts 192°
2026-04-28 17:40 48.52382 69.23481 34192 ft 419 kts 192°
2026-04-28 17:41 48.46635 69.22075 34195 ft 417 kts 193°
2026-04-28 17:41 48.40955 69.20700 34194 ft 415 kts 193°
2026-04-28 17:42 48.35255 69.19321 34195 ft 414 kts 193°
2026-04-28 17:42 48.29571 69.17946 34186 ft 414 kts 193°
2026-04-28 17:43 48.23888 69.16580 34171 ft 413 kts 193°
2026-04-28 17:43 48.18253 69.15224 34163 ft 413 kts 193°
2026-04-28 17:44 48.12577 69.13862 34160 ft 413 kts 193°
2026-04-28 17:44 48.06906 69.12510 34161 ft 413 kts 192°
2026-04-28 17:45 48.01234 69.11167 34165 ft 412 kts 192°
2026-04-28 17:45 47.95576 69.09823 34165 ft 411 kts 192°
2026-04-28 17:46 47.89966 69.08485 34159 ft 411 kts 192°
2026-04-28 17:46 47.84322 69.07136 34152 ft 411 kts 192°
2026-04-28 17:47 47.78679 69.05798 34139 ft 411 kts 192°
2026-04-28 17:47 47.73031 69.04465 34135 ft 411 kts 192°
2026-04-28 17:48 47.67417 69.03145 34136 ft 411 kts 192°
2026-04-28 17:48 47.61759 69.01823 34131 ft 411 kts 192°
2026-04-28 17:49 47.56106 69.00493 34120 ft 411 kts 192°
2026-04-28 17:49 47.50455 68.99164 34124 ft 411 kts 192°
2026-04-28 17:50 47.44805 68.97847 34121 ft 411 kts 192°
2026-04-28 17:50 47.39193 68.96547 34124 ft 411 kts 192°
2026-04-28 17:51 47.33541 68.95226 34124 ft 411 kts 192°
2026-04-28 17:51 47.27893 68.93907 34124 ft 411 kts 192°
2026-04-28 17:52 47.22241 68.92603 34128 ft 411 kts 192°
2026-04-28 17:52 47.13807 68.90660 34143 ft 410 kts 192°
2026-04-28 17:53 47.08178 68.89368 34131 ft 409 kts 192°
2026-04-28 17:53 47.02568 68.88078 34138 ft 408 kts 191°
2026-04-28 17:54 46.96961 68.86795 34145 ft 407 kts 191°
2026-04-28 17:54 46.91401 68.85524 34139 ft 407 kts 191°
2026-04-28 17:55 46.85813 68.84245 34127 ft 407 kts 191°
2026-04-28 17:55 46.80217 68.82968 34118 ft 407 kts 191°
2026-04-28 17:56 46.74620 68.81696 34109 ft 407 kts 191°
2026-04-28 17:56 46.69027 68.80423 34109 ft 407 kts 191°
2026-04-28 17:57 46.63472 68.79158 34097 ft 407 kts 191°
2026-04-28 17:57 46.57876 68.77897 34102 ft 407 kts 191°
2026-04-28 17:58 46.52281 68.76633 34100 ft 407 kts 191°
2026-04-28 17:58 46.46683 68.75376 34092 ft 407 kts 191°
2026-04-28 17:59 46.41088 68.74130 34090 ft 407 kts 191°
2026-04-28 17:59 46.35525 68.72884 34086 ft 407 kts 191°
2026-04-28 18:00 46.29918 68.71635 34090 ft 407 kts 191°
2026-04-28 18:00 46.24328 68.70384 34105 ft 406 kts 191°
2026-04-28 18:01 46.18748 68.69141 34093 ft 405 kts 191°
2026-04-28 18:01 46.13211 68.67907 34086 ft 405 kts 191°
2026-04-28 18:02 46.07634 68.66668 34078 ft 406 kts 191°
2026-04-28 18:02 46.02055 68.65439 34077 ft 406 kts 191°
2026-04-28 18:03 45.96475 68.64208 34059 ft 406 kts 190°
2026-04-28 18:03 45.90924 68.62979 34059 ft 407 kts 190°
2026-04-28 18:04 45.85329 68.61747 34081 ft 406 kts 190°
2026-04-28 18:04 45.79743 68.60532 34082 ft 406 kts 190°
2026-04-28 18:05 45.75109 68.59525 34067 ft 405 kts 190°
2026-04-28 18:05 45.68596 68.58078 34058 ft 405 kts 190°
2026-04-28 18:06 45.63052 68.56861 34051 ft 406 kts 190°
2026-04-28 18:06 45.57465 68.55651 34050 ft 406 kts 190°
2026-04-28 18:07 45.51874 68.54438 34044 ft 407 kts 190°
2026-04-28 18:07 45.46269 68.53226 34038 ft 408 kts 190°
2026-04-28 18:08 45.40698 68.52026 34043 ft 408 kts 190°
2026-04-28 18:08 45.35091 68.50816 34046 ft 407 kts 190°
2026-04-28 18:09 45.29485 68.49605 34027 ft 408 kts 190°
2026-04-28 18:09 45.23868 68.48399 34024 ft 408 kts 190°
2026-04-28 18:10 45.18282 68.47207 34024 ft 409 kts 190°
2026-04-28 18:10 45.12653 68.46011 34021 ft 409 kts 190°
2026-04-28 18:11 45.07015 68.44808 34020 ft 410 kts 190°
2026-04-28 18:11 45.01380 68.43584 34017 ft 410 kts 191°
2026-04-28 18:12 44.95779 68.42383 34016 ft 410 kts 190°
2026-04-28 18:12 44.90129 68.41197 34017 ft 410 kts 190°
2026-04-28 18:13 44.84480 68.40010 34013 ft 411 kts 190°
2026-04-28 18:13 44.78831 68.38809 34010 ft 411 kts 191°
2026-04-28 18:14 44.73180 68.37612 34015 ft 411 kts 190°
2026-04-28 18:14 44.67562 68.36433 34001 ft 411 kts 191°
2026-04-28 18:15 44.61906 68.35241 33994 ft 411 kts 191°
2026-04-28 18:15 44.56239 68.34050 33998 ft 412 kts 191°
2026-04-28 18:16 44.50561 68.32856 33999 ft 413 kts 191°
2026-04-28 18:16 44.44915 68.31679 33992 ft 413 kts 191°
2026-04-28 18:17 44.39223 68.30495 33995 ft 414 kts 191°
2026-04-28 18:17 44.33527 68.29309 34002 ft 414 kts 191°
2026-04-28 18:18 44.27833 68.28122 34007 ft 414 kts 191°
2026-04-28 18:18 44.23099 68.27139 33997 ft 414 kts 191°
2026-04-28 18:19 44.16479 68.25776 33999 ft 414 kts 191°
2026-04-28 18:19 44.10701 68.25783 34001 ft 418 kts 177°
2026-04-28 18:20 44.04909 68.26585 33996 ft 418 kts 177°
2026-04-28 18:20 43.99152 68.27371 33996 ft 418 kts 177°
2026-04-28 18:21 43.93361 68.28155 33991 ft 419 kts 177°
2026-04-28 18:21 43.87544 68.28947 33992 ft 420 kts 177°
2026-04-28 18:22 43.81730 68.29731 33986 ft 420 kts 177°
2026-04-28 18:22 43.75955 68.30502 33989 ft 420 kts 177°
2026-04-28 18:23 43.70145 68.31287 33974 ft 420 kts 177°
2026-04-28 18:23 43.64326 68.32070 33958 ft 420 kts 177°
2026-04-28 18:24 43.59483 68.32723 33958 ft 421 kts 177°
2026-04-28 18:24 43.52664 68.33649 33963 ft 421 kts 177°
2026-04-28 18:25 43.46868 68.34416 33950 ft 421 kts 177°
2026-04-28 18:26 43.38110 68.35582 33946 ft 422 kts 177°
2026-04-28 18:26 43.32268 68.36371 33942 ft 422 kts 176°
2026-04-28 18:27 43.26587 68.38519 33933 ft 427 kts 161°
2026-04-28 18:27 43.21094 68.41514 33931 ft 428 kts 161°
2026-04-28 18:28 43.15554 68.44497 33949 ft 428 kts 161°
2026-04-28 18:28 43.10029 68.47472 33602 ft 425 kts 161°
2026-04-28 18:28 43.07287 68.48949 33328 ft 422 kts 161°
2026-04-28 18:29 43.04559 68.50416 33056 ft 420 kts 161°
2026-04-28 18:29 43.01881 68.51854 32793 ft 418 kts 161°
2026-04-28 18:29 42.99178 68.53304 32528 ft 416 kts 161°
2026-04-28 18:29 42.96488 68.54750 32266 ft 415 kts 161°
2026-04-28 18:30 42.93810 68.56190 31992 ft 413 kts 161°
2026-04-28 18:30 42.88505 68.59031 31244 ft 406 kts 161°
2026-04-28 18:30 42.85884 68.60429 30770 ft 403 kts 161°
2026-04-28 18:31 42.83278 68.61823 30294 ft 401 kts 161°
2026-04-28 18:31 42.80690 68.63214 29813 ft 399 kts 161°
2026-04-28 18:31 42.78154 68.64583 29345 ft 395 kts 161°
2026-04-28 18:31 42.75618 68.65957 28905 ft 391 kts 161°
2026-04-28 18:32 42.73104 68.67322 28473 ft 387 kts 161°
2026-04-28 18:32 42.70609 68.68676 28036 ft 383 kts 161°
2026-04-28 18:32 42.68140 68.70014 27609 ft 380 kts 160°
2026-04-28 18:32 42.65697 68.71338 27179 ft 377 kts 160°
2026-04-28 18:33 42.63275 68.72644 26737 ft 374 kts 160°
2026-04-28 18:33 42.60864 68.73936 26298 ft 371 kts 160°
2026-04-28 18:33 42.58464 68.75222 25841 ft 369 kts 160°
2026-04-28 18:33 42.56116 68.76482 25393 ft 367 kts 160°
2026-04-28 18:34 42.53743 68.77756 24925 ft 366 kts 160°
2026-04-28 18:34 42.51382 68.79021 24452 ft 365 kts 160°
2026-04-28 18:34 42.49017 68.80285 23977 ft 364 kts 159°
2026-04-28 18:34 42.46661 68.81544 23491 ft 364 kts 159°
2026-04-28 18:35 42.44314 68.82802 22957 ft 363 kts 159°
2026-04-28 18:35 42.41936 68.83891 22483 ft 359 kts 164°
2026-04-28 18:35 42.39574 68.84825 22024 ft 357 kts 165°
2026-04-28 18:35 42.37195 68.85762 21568 ft 355 kts 164°
2026-04-28 18:36 42.34828 68.86696 21118 ft 353 kts 164°
2026-04-28 18:36 42.32475 68.87626 20668 ft 352 kts 164°
2026-04-28 18:36 42.30136 68.88552 20225 ft 350 kts 164°
2026-04-28 18:36 42.27801 68.89478 19778 ft 349 kts 164°
2026-04-28 18:37 42.25467 68.90403 19331 ft 348 kts 164°
2026-04-28 18:37 42.23142 68.91322 18892 ft 348 kts 164°
2026-04-28 18:37 42.20821 68.92234 18453 ft 347 kts 164°
2026-04-28 18:37 42.18507 68.93141 17986 ft 346 kts 164°
2026-04-28 18:38 42.16228 68.94036 17548 ft 345 kts 164°
2026-04-28 18:38 42.13934 68.94937 17118 ft 342 kts 164°
2026-04-28 18:38 42.11655 68.95832 16698 ft 340 kts 164°
2026-04-28 18:38 42.09386 68.96724 16283 ft 339 kts 164°
2026-04-28 18:39 42.07131 68.97608 15869 ft 337 kts 164°
2026-04-28 18:39 42.04880 68.98489 15457 ft 336 kts 164°
2026-04-28 18:39 42.02641 68.99365 15053 ft 335 kts 164°
2026-04-28 18:39 42.00409 69.00240 14658 ft 333 kts 164°
2026-04-28 18:40 41.98190 69.01108 14279 ft 331 kts 165°
2026-04-28 18:40 41.95926 69.01609 13871 ft 330 kts 179°
2026-04-28 18:40 41.93671 69.01511 13444 ft 329 kts 183°
2026-04-28 18:40 41.91391 69.01364 13020 ft 327 kts 183°
2026-04-28 18:41 41.89123 69.01225 12605 ft 325 kts 183°
2026-04-28 18:41 41.86868 69.01087 12194 ft 323 kts 183°
2026-04-28 18:41 41.84623 69.00951 11769 ft 322 kts 183°
2026-04-28 18:41 41.82387 69.00817 11351 ft 321 kts 183°
2026-04-28 18:42 41.80155 69.00684 10923 ft 320 kts 183°
2026-04-28 18:42 41.77964 69.00556 10500 ft 320 kts 183°
2026-04-28 18:42 41.75744 69.00424 10062 ft 319 kts 183°
2026-04-28 18:42 41.73536 69.00292 9779 ft 313 kts 183°
2026-04-28 18:43 41.71399 69.00164 9567 ft 304 kts 183°
2026-04-28 18:43 41.69303 69.00038 9058 ft 298 kts 183°
2026-04-28 18:43 41.67243 68.99914 8367 ft 295 kts 183°
2026-04-28 18:43 41.65215 68.99790 7850 ft 291 kts 182°
2026-04-28 18:44 41.63186 68.99665 7390 ft 292 kts 182°
2026-04-28 18:44 41.59178 68.99422 6651 ft 286 kts 182°
2026-04-28 18:44 41.57209 68.99302 6384 ft 279 kts 182°
2026-04-28 18:45 41.55322 68.99140 6245 ft 266 kts 190°
2026-04-28 18:45 41.53646 68.98241 6031 ft 257 kts 217°
2026-04-28 18:45 41.52467 68.96500 5979 ft 255 kts 242°
2026-04-28 18:45 41.51907 68.94264 5981 ft 255 kts 258°
2026-04-28 18:46 41.51530 68.91946 5980 ft 256 kts 258°
2026-04-28 18:46 41.51154 68.89625 5985 ft 256 kts 258°
2026-04-28 18:46 41.50782 68.87335 5980 ft 256 kts 257°
2026-04-28 18:46 41.50156 68.85120 5975 ft 256 kts 240°
2026-04-28 18:47 41.49222 68.83092 5980 ft 256 kts 238°
2026-04-28 18:47 41.48290 68.81080 5977 ft 252 kts 238°
2026-04-28 18:47 41.47385 68.79119 5981 ft 247 kts 238°
2026-04-28 18:47 41.46489 68.77175 5976 ft 246 kts 238°
2026-04-28 18:48 41.45574 68.75251 5978 ft 246 kts 233°
2026-04-28 18:48 41.44384 68.73626 5977 ft 246 kts 219°
2026-04-28 18:48 41.43071 68.72213 5967 ft 246 kts 219°
2026-04-28 18:48 41.41742 68.70777 5974 ft 246 kts 219°
2026-04-28 18:49 41.40417 68.69339 5974 ft 245 kts 219°
2026-04-28 18:49 41.39972 68.68857 5976 ft 244 kts 219°
2026-04-28 18:49 41.37757 68.66531 5975 ft 244 kts 212°
2026-04-28 18:49 41.36220 68.65584 5974 ft 244 kts 200°
2026-04-28 18:50 41.34621 68.64813 5972 ft 244 kts 200°
2026-04-28 18:50 41.33022 68.64043 5973 ft 244 kts 200°
2026-04-28 18:50 41.31423 68.63272 5974 ft 244 kts 200°
2026-04-28 18:50 41.29824 68.62501 5977 ft 244 kts 200°
2026-04-28 18:51 41.28224 68.61837 5975 ft 244 kts 191°
2026-04-28 18:51 41.26529 68.61677 5976 ft 245 kts 181°
2026-04-28 18:51 41.24824 68.61651 5969 ft 245 kts 181°
2026-04-28 18:51 41.23119 68.61622 5974 ft 245 kts 181°
2026-04-28 18:52 41.21414 68.61590 5970 ft 245 kts 180°
2026-04-28 18:52 41.19747 68.61989 5848 ft 245 kts 156°
2026-04-28 18:52 41.18386 68.63312 5723 ft 245 kts 129°
2026-04-28 18:52 41.17625 68.65304 5599 ft 245 kts 102°
2026-04-28 18:53 41.17610 68.67544 5478 ft 245 kts 79°
2026-04-28 18:53 41.17952 68.69738 5358 ft 245 kts 78°
2026-04-28 18:53 41.18302 68.71947 5238 ft 245 kts 78°
2026-04-28 18:53 41.18654 68.74160 5118 ft 245 kts 78°
2026-04-28 18:54 41.19000 68.76350 4994 ft 237 kts 78°
2026-04-28 18:54 41.19335 68.78479 4872 ft 234 kts 78°
2026-04-28 18:54 41.19661 68.80581 4757 ft 233 kts 79°
2026-04-28 18:54 41.19988 68.82688 4632 ft 233 kts 79°
2026-04-28 18:55 41.20314 68.84796 4509 ft 232 kts 79°
2026-04-28 18:55 41.20529 68.86184 4433 ft 232 kts 79°
2026-04-28 18:55 41.20958 68.88959 4275 ft 229 kts 79°
2026-04-28 18:55 41.21271 68.90990 4150 ft 220 kts 79°
2026-04-28 18:56 41.21572 68.92942 4054 ft 213 kts 79°
2026-04-28 18:56 41.21867 68.94854 3990 ft 210 kts 79°
2026-04-28 18:56 41.22159 68.96751 3996 ft 209 kts 79°
2026-04-28 18:56 41.22451 68.98640 3997 ft 209 kts 79°
2026-04-28 18:57 41.22719 69.00497 4030 ft 202 kts 80°
2026-04-28 18:57 41.22954 69.02303 3995 ft 191 kts 81°
2026-04-28 18:57 41.23154 69.04002 3994 ft 182 kts 82°
2026-04-28 18:57 41.23338 69.05624 3999 ft 179 kts 82°
2026-04-28 18:58 41.23522 69.07254 3990 ft 178 kts 82°
2026-04-28 18:58 41.23703 69.08869 3845 ft 172 kts 82°
2026-04-28 18:58 41.23874 69.10394 3658 ft 162 kts 82°
2026-04-28 18:58 41.24035 69.11828 3482 ft 151 kts 82°
2026-04-28 18:59 41.24189 69.13202 3290 ft 149 kts 81°
2026-04-28 18:59 41.24340 69.14553 3101 ft 147 kts 81°
2026-04-28 18:59 41.24487 69.15874 2915 ft 146 kts 81°
2026-04-28 18:59 41.24637 69.17222 2727 ft 145 kts 81°
2026-04-28 19:00 41.24783 69.18525 2528 ft 144 kts 81°
2026-04-28 19:00 41.24929 69.19844 2356 ft 143 kts 82°
2026-04-28 19:00 41.25076 69.21143 2127 ft 142 kts 82°
2026-04-28 19:00 41.25216 69.22431 1953 ft 140 kts 82°
2026-04-28 19:01 41.25359 69.23708 1774 ft 139 kts 83°
2026-04-28 19:01 41.25497 69.24971 1575 ft 137 kts 82°
2026-04-28 19:01 41.25641 69.26214 1408 ft 135 kts 83°
2026-04-28 19:01 41.25759 69.27327 1381 ft 101 kts 82°
2026-04-28 19:02 41.25835 69.28026 1383 ft 59 kts 82°
2026-04-28 19:02 41.25886 69.28481 1381 ft 36 kts 81°
2026-04-28 19:02 41.25920 69.28784 1378 ft 26 kts 82°
2026-04-28 19:02 41.25986 69.28902 1379 ft 16 kts 353°
2026-04-28 19:03 41.26050 69.28843 1380 ft 5 kts 318°
2026-04-28 19:03 41.26072 69.28817 1381 ft 4 kts 318°
2026-04-28 19:03 41.26111 69.28771 1379 ft 11 kts 318°
2026-04-28 19:03 41.26166 69.28702 1380 ft 10 kts 312°
2026-04-28 19:04 41.26184 69.28623 1381 ft 9 kts 272°
2026-04-28 19:04 41.26186 69.28548 1382 ft 8 kts 272°
2026-04-28 19:04 41.26188 69.28482 1382 ft 7 kts 272°
2026-04-28 19:04 41.26190 69.28424 1382 ft 6 kts 272°
2026-04-28 19:05 41.26191 69.28374 1382 ft 5 kts 272°
2026-04-28 19:05 41.26187 69.28329 1382 ft 7 kts 259°
2026-04-28 19:05 41.26178 69.28262 1379 ft 7 kts 259°
2026-04-28 19:05 41.26172 69.28205 1382 ft 6 kts 262°
2026-04-28 19:06 41.26166 69.28154 1379 ft 6 kts 261°
2026-04-28 19:06 41.26160 69.28105 1382 ft 8 kts 261°
2026-04-28 19:06 41.26150 69.28014 1378 ft 7 kts 261°
2026-04-28 19:06 41.26141 69.27936 1382 ft 10 kts 261°
2026-04-28 19:07 41.26131 69.27846 1382 ft 9 kts 261°
2026-04-28 19:07 41.26122 69.27766 1377 ft 8 kts 261°
2026-04-28 19:07 41.26114 69.27696 1381 ft 7 kts 261°
2026-04-28 19:07 41.26107 69.27628 1380 ft 11 kts 261°
2026-04-28 19:08 41.26091 69.27492 1380 ft 16 kts 261°
2026-04-28 19:08 41.26075 69.27341 1381 ft 16 kts 262°
2026-04-28 19:08 41.26049 69.27234 1382 ft 12 kts 242°
2026-04-28 19:08 41.26017 69.27143 1378 ft 10 kts 246°
2026-04-28 19:09 41.25991 69.27061 1381 ft 9 kts 255°
2026-04-28 19:09 41.26021 69.27011 1378 ft 6 kts 336°
2026-04-28 19:09 41.26036 69.27003 1380 ft 1 kts 336°
2026-04-28 19:09 41.26044 69.26998 1380 ft 1 kts 336°